Location: Unspecified
(0.0000°N, 0.0000°E)
Time: 21:41:06
(UTC+00:00)

Vanguard 3 - Pass Details

Date: 17 December 2017
Orbit: 508 x 3264 km, 33.3° (Epoch: 24 April)

Event Time Altitude Azimuth Distance (km) Brightness Sun altitude
Rises 18:39:57 0° 310° (NW) 3,227 10.6 -10.0°
Reaches altitude 10° 18:41:55 10° 312° (NW) 2,506 10.0 -10.4°
Maximum altitude 18:47:53 75° 38° (NE) 1,271 8.0 -11.8°
Drops below altitude 10° 18:58:52 10° 122° (ESE) 4,433 10.6 -14.3°
Sets 19:03:28 0° 123° (ESE) 5,892 11.2 -15.4°
